Theta_e
337 337 337 335 335 335 335 335 336 336 335 337 337 337 338 338 339 338 338 338 338 338 336 336 337 337 336 336 336 336 337 337 337 336 335 335 333 331 330 329 328 329 329 329 330 331 331 331 330 329 329 329 330 330 330 330 330 330 330 330 330 330 330 331 331 330 329 329 330 330 330 330 330 330 330 330 330 330 328 325 320 316 314 312 314
337 338 337 335 335 335 337 339 338 339 339 339 339 340 340 340 340 339 339 338 337 336 335 336 336 336 336 336 336 336 336 338 337 336 334 334 333 331 330 329 329 328 328 328 329 330 330 329 329 328 329 329 329 329 330 330 329 329 329 329 329 329 329 328 328 329 328 328 329 330 330 330 331 331 331 331 331 330 330 329 324 319 316 313 312
337 338 338 337 337 338 340 340 340 340 339 340 340 341 341 340 339 338 337 337 336 336 335 335 335 335 336 336 336 335 336 337 337 335 334 333 333 331 329 330 330 328 327 328 329 329 329 329 328 328 328 328 329 329 329 329 329 329 329 329 329 329 328 328 328 327 327 327 328 328 329 331 331 331 332 332 332 330 330 330 328 324 319 315 313
335 337 339 339 339 340 340 340 340 339 339 341 340 339 340 338 335 333 334 336 337 336 335 334 334 334 335 335 336 336 336 337 336 334 334 333 333 332 329 329 329 327 326 327 328 329 329 328 328 328 328 328 328 329 329 329 329 328 328 328 329 329 329 328 328 328 327 328 327 327 329 330 331 331 332 332 331 331 331 330 330 327 324 319 315
333 335 339 340 341 340 340 340 339 338 339 339 339 338 339 337 334 334 336 337 337 335 334 333 333 335 335 335 336 336 336 335 335 333 333 332 332 332 331 329 328 327 327 326 327 328 329 328 328 327 327 327 327 327 327 327 327 326 326 327 326 327 328 328 328 328 328 328 327 327 328 329 329 330 331 331 331 331 331 331 330 330 328 324 318
333 334 337 340 340 339 339 339 336 337 336 335 337 338 339 338 337 338 337 335 335 334 333 333 333 334 335 336 336 335 334 333 332 331 331 330 329 330 330 330 329 328 328 326 326 327 328 327 327 326 325 324 324 323 323 323 322 321 322 323 324 326 327 328 328 327 327 327 327 327 327 328 329 329 330 330 330 331 331 332 331 330 330 328 324
332 335 337 338 339 337 337 336 334 336 336 334 338 339 339 339 337 337 337 334 333 333 333 333 334 334 335 336 335 333 332 331 330 330 329 329 328 328 329 329 329 329 327 325 325 326 326 325 323 320 318 316 315 314 314 314 314 314 314 316 320 323 325 326 326 326 326 326 326 327 327 327 328 328 328 329 330 330 331 331 331 330 330 330 328
332 335 337 336 337 336 334 334 333 335 335 335 338 338 336 335 332 332 334 333 332 332 333 333 334 334 334 334 333 332 331 330 328 328 328 327 327 328 328 329 327 327 326 325 324 323 319 316 311 308 306 305 304 304 304 305 305 305 306 308 311 314 317 320 321 323 324 324 325 325 325 326 326 326 327 327 328 329 330 330 330 331 331 330 330
334 336 336 334 335 334 332 332 332 334 334 334 338 338 334 332 330 327 328 331 333 332 332 333 333 333 333 332 332 331 330 328 327 327 326 326 326 326 327 327 326 325 323 320 317 313 308 304 302 302 301 301 301 301 301 301 301 301 301 302 303 304 307 309 312 315 317 319 321 322 322 323 323 324 324 325 325 326 328 330 330 331 332 331 330
335 336 334 334 336 334 332 331 332 334 335 336 337 336 333 331 331 330 327 327 332 333 332 333 333 333 332 332 330 330 328 327 327 326 325 325 324 324 324 323 320 317 313 308 305 302 301 300 300 300 301 301 300 301 301 301 300 300 300 300 300 300 301 302 303 305 307 310 314 316 318 320 320 321 321 322 323 323 325 328 330 330 331 331 331
335 333 331 334 334 332 332 333 334 335 335 337 336 333 331 329 331 332 329 327 328 329 329 330 333 333 330 329 329 328 328 327 326 323 322 324 323 321 319 314 310 306 302 301 301 301 300 300 300 300 300 300 301 301 301 300 300 300 300 300 300 300 300 300 300 300 300 302 304 307 310 314 317 318 319 319 320 320 322 324 328 330 330 330 331
333 331 331 333 332 331 332 334 335 335 335 335 335 333 330 330 329 327 329 331 328 324 324 328 333 332 328 328 328 327 326 325 325 322 322 323 321 316 310 304 302 302 301 300 300 300 300 300 300 300 300 300 300 300 300 300 300 300 300 300 299 299 299 299 299 299 299 299 299 300 301 304 308 313 316 318 318 318 318 319 323 327 328 329 330
333 332 332 333 332 331 332 333 335 336 335 334 332 330 329 331 330 326 327 330 327 319 318 326 332 333 330 329 328 326 325 324 325 323 321 318 312 306 302 300 301 301 301 301 300 300 300 300 300 300 300 300 300 300 300 300 299 299 299 299 299 299 299 299 299 299 299 299 299 299 299 299 300 303 307 312 314 316 315 314 317 322 325 326 327
333 333 333 332 333 333 333 334 334 334 333 332 331 328 329 330 330 330 328 323 320 315 314 325 332 332 332 331 329 327 325 325 324 319 313 308 303 301 300 300 300 299 300 302 302 300 299 299 300 300 299 299 299 299 299 299 299 299 299 299 299 299 299 299 299 299 299 299 299 299 299 299 299 299 300 302 307 311 313 312 314 318 322 324 325
333 333 333 333 334 334 334 334 334 333 332 331 330 328 328 328 328 330 330 322 316 313 315 326 332 330 332 332 330 329 326 324 323 318 309 302 300 300 300 299 300 299 299 301 302 301 299 299 299 299 299 299 299 299 299 299 299 299 299 299 299 299 299 299 299 299 299 299 299 299 299 299 299 299 299 299 300 303 306 310 314 317 319 321 322
332 332 333 333 333 333 334 333 332 331 330 330 329 328 325 323 324 326 329 329 320 311 313 320 322 325 331 332 330 330 328 325 323 319 313 303 299 300 300 299 300 299 299 299 300 300 299 299 299 299 299 299 299 299 299 299 299 299 299 299 299 299 299 299 299 299 299 299 299 299 300 300 299 299 299 299 299 299 300 303 308 313 317 319 319
332 332 332 333 333 332 332 332 331 330 329 328 327 325 320 317 319 320 324 329 322 311 310 313 312 318 328 331 329 328 329 326 322 318 313 306 303 301 299 300 299 299 299 299 298 299 299 299 298 298 298 298 298 298 299 300 299 298 298 298 299 299 299 299 299 299 299 299 300 300 300 300 300 300 300 300 300 299 299 299 300 304 310 314 317
332 332 332 332 331 331 331 331 330 329 328 327 325 320 316 315 315 315 315 320 320 314 309 308 307 310 318 325 327 325 325 325 323 319 314 311 309 305 300 300 298 298 301 301 299 298 299 300 299 300 301 300 299 299 300 300 300 299 299 299 298 299 299 299 299 299 299 299 299 300 300 300 300 300 300 300 301 300 300 300 299 299 301 305 310
332 331 331 331 330 330 331 330 329 328 327 325 321 316 315 314 312 312 310 311 316 317 312 308 305 303 307 313 316 315 316 320 322 320 317 315 314 309 303 301 298 298 301 301 300 299 299 300 301 302 304 303 301 301 300 300 299 300 300 299 298 299 299 299 299 299 299 299 299 299 299 300 300 300 300 301 301 301 301 300 300 300 299 299 301
332 331 331 330 329 330 330 329 327 326 325 321 317 314 313 312 311 311 310 307 309 311 309 307 303 301 302 304 304 303 305 311 316 318 317 317 315 312 309 307 304 301 299 301 302 302 302 303 303 303 305 304 303 302 301 300 300 301 301 299 298 299 299 299 299 299 300 300 299 300 299 300 299 300 300 301 301 301 301 301 301 301 300 300 299
331 331 331 329 329 330 329 327 326 325 322 317 314 313 311 310 309 308 306 304 303 303 303 303 302 302 301 301 301 302 302 302 308 312 314 314 313 312 312 313 312 307 302 303 306 306 305 305 305 304 304 304 303 303 301 300 302 302 301 299 299 299 299 300 300 299 300 300 300 300 300 299 299 300 301 300 300 300 300 301 301 301 301 301 300
331 331 330 329 329 329 327 325 324 321 317 314 312 311 309 308 306 304 303 302 302 301 302 302 302 302 302 301 302 305 307 305 305 310 312 312 311 310 311 312 313 311 305 305 307 306 305 305 305 304 304 303 303 302 302 302 303 303 300 299 300 300 300 301 301 301 300 300 300 300 300 300 300 301 301 300 300 300 300 300 301 301 302 301 301
331 330 329 328 328 327 325 324 321 317 314 312 310 309 307 304 302 301 301 301 301 301 301 301 301 301 301 301 301 303 306 305 306 310 312 313 313 310 310 310 310 310 308 307 307 305 304 304 304 304 303 302 302 302 302 303 304 302 299 299 300 301 302 302 302 302 301 301 300 300 300 300 300 301 300 300 300 300 300 300 301 301 301 301 301
330 329 328 328 327 324 322 320 317 314 312 310 308 306 303 301 301 301 301 301 301 301 301 301 300 300 300 300 300 300 300 301 303 307 309 312 313 311 310 310 309 309 308 307 306 304 303 303 303 303 302 302 302 301 300 301 302 300 299 299 301 302 302 302 302 302 301 301 301 300 300 300 300 300 300 300 300 300 300 301 301 301 301 301 302
329 328 327 326 324 322 319 316 314 312 310 308 305 303 301 301 301 301 301 300 301 300 301 300 300 300 300 300 300 299 299 299 300 302 305 308 311 312 311 310 309 308 308 307 305 303 302 303 303 302 302 302 300 299 298 299 301 300 299 300 302 303 303 303 303 302 302 301 301 301 301 300 300 300 300 300 300 300 300 301 301 301 301 301 301
328 327 327 325 322 321 318 314 312 310 308 305 302 300 300 301 300 300 300 300 300 300 300 300 300 300 300 299 299 299 299 299 299 299 300 302 306 309 311 311 309 308 307 306 305 303 302 302 303 302 301 301 299 298 298 300 302 300 299 300 302 303 303 303 303 302 302 302 302 301 301 301 301 300 300 300 300 300 300 301 301 301 301 301 301
327 326 325 322 321 320 315 312 310 308 305 302 300 300 300 300 300 300 300 300 300 299 299 299 300 299 299 299 299 299 299 298 299 298 298 299 301 304 307 310 309 307 307 307 305 303 302 302 303 301 301 301 299 298 299 301 302 300 299 302 303 303 304 303 303 302 302 302 302 302 301 301 301 301 300 300 300 300 300 300 300 300 301 301 301
327 325 324 322 319 316 312 310 308 305 302 300 300 300 299 299 299 299 299 299 299 299 299 299 299 299 299 299 298 298 298 298 298 298 298 298 298 300 302 306 308 307 307 308 306 303 302 302 302 301 302 301 300 299 300 302 302 300 300 302 303 303 303 303 303 303 302 302 302 302 302 301 301 300 300 300 300 300 300 300 300 300 300 301 300
327 326 325 322 316 313 311 308 305 302 300 300 299 299 299 299 299 299 299 299 299 299 299 298 298 298 298 298 298 298 298 298 298 298 298 298 298 299 300 301 304 306 307 307 306 303 302 302 302 302 302 301 301 301 302 303 302 300 300 302 303 303 302 303 303 303 302 302 302 302 302 301 301 300 300 299 299 299 299 299 299 299 299 300 300
326 325 324 319 313 311 309 306 303 300 299 299 299 299 299 299 299 299 299 299 299 299 298 298 298 298 298 298 297 297 297 297 298 297 298 300 301 302 302 300 300 303 305 306 305 303 302 302 302 302 302 302 302 303 303 303 301 300 300 302 303 302 302 303 303 303 303 303 302 302 302 301 301 300 300 299 298 298 299 299 299 299 298 298 298
326 324 321 316 311 309 307 304 301 299 299 299 299 299 299 299 298 298 298 299 299 298 298 297 297 297 297 297 298 297 297 297 297 298 298 300 302 303 303 301 297 298 302 304 305 303 302 302 303 303 303 302 303 303 303 302 301 300 300 302 303 302 302 303 303 303 303 303 302 302 301 301 301 300 299 299 298 298 298 298 298 298 297 297 297
324 322 317 313 310 308 305 302 299 299 299 298 298 298 298 298 298 298 298 298 298 297 297 297 297 297 297 297 298 298 300 300 300 301 301 301 302 303 302 302 298 296 300 303 304 303 303 303 303 304 303 302 303 303 302 302 300 299 301 302 302 301 302 303 303 303 303 302 302 302 301 301 300 300 299 299 299 298 298 298 298 297 297 297 298
322 318 314 311 309 306 303 300 299 298 298 298 298 298 298 298 298 298 298 298 297 297 297 297 297 297 297 297 298 298 300 303 303 303 304 302 302 302 302 301 300 297 298 302 303 303 303 303 304 304 303 303 303 303 302 301 299 299 300 301 301 301 302 303 302 302 303 302 302 301 301 301 300 300 299 299 299 298 298 298 298 297 297 297 298
320 316 312 309 307 304 301 299 298 298 298 298 298 298 298 298 298 298 298 298 297 296 297 297 297 297 297 297 297 297 298 301 303 302 303 303 302 302 301 301 300 298 298 300 302 303 304 304 304 304 303 303 303 303 302 301 299 298 300 301 300 301 302 302 302 302 302 302 302 301 300 300 300 300 300 299 299 299 298 298 298 297 297 297 297
318 314 311 308 305 302 299 298 298 298 298 298 298 298 298 298 297 297 298 297 296 297 298 298 297 297 298 297 297 297 298 301 301 300 301 302 301 301 301 301 300 298 299 300 302 303 303 304 304 304 303 303 303 302 301 301 299 298 299 300 300 301 302 302 302 302 302 302 301 300 300 300 300 300 300 300 299 299 299 298 298 298 298 297 297
317 314 310 306 303 300 299 298 298 298 298 298 298 297 297 297 297 297 297 297 298 300 301 300 299 299 299 299 298 299 300 302 302 300 300 302 301 299 300 302 301 298 300 302 303 303 304 304 304 303 303 303 302 302 301 301 300 299 298 298 299 301 302 302 302 302 302 301 300 300 300 300 300 300 300 300 299 299 299 298 298 298 298 298 298
317 312 308 305 303 299 299 299 298 298 298 297 297 297 297 297 297 297 297 299 301 302 301 300 300 299 300 300 300 299 300 300 300 300 299 300 301 298 297 300 300 298 300 302 303 303 303 304 304 303 303 302 302 301 301 301 300 299 298 297 298 301 302 302 302 302 302 301 300 299 299 300 300 300 300 300 300 299 299 298 298 298 298 298 298
316 310 306 305 302 299 299 299 298 298 297 297 297 297 297 297 296 297 297 299 300 300 299 299 299 300 300 299 298 298 298 296 296 296 296 297 298 297 295 297 297 298 300 302 302 302 303 303 303 303 303 302 301 301 301 300 299 299 299 298 299 301 302 302 302 302 302 301 300 299 299 300 300 300 300 300 300 299 299 298 298 298 298 298 298
315 308 306 305 302 301 301 300 299 299 298 298 297 296 297 297 297 297 296 298 299 299 299 299 300 301 300 297 296 296 296 295 295 295 296 296 296 295 295 296 296 297 300 301 302 302 302 303 303 302 302 302 301 301 300 299 298 298 299 300 300 301 301 302 302 302 302 301 300 299 300 300 300 300 300 300 300 299 299 299 298 298 298 298 297
312 307 306 304 301 303 302 300 300 299 298 299 298 297 297 296 296 297 296 297 298 299 299 299 300 301 298 295 295 295 295 295 295 295 295 296 296 295 295 296 295 296 298 300 301 301 301 303 302 302 302 301 300 300 300 299 298 297 298 300 301 301 301 301 301 301 301 300 300 300 300 300 300 300 300 300 299 299 299 299 298 298 298 297 297
310 307 306 303 302 304 303 300 300 298 298 299 299 299 298 296 296 296 296 296 297 298 299 300 301 300 297 295 296 295 295 295 295 295 295 295 296 295 296 296 296 296 296 297 299 299 300 302 302 301 301 300 300 300 299 298 297 296 298 299 300 301 301 301 301 301 301 301 301 300 300 300 300 300 300 300 299 299 298 298 298 297 297 297 296
309 307 306 303 303 304 303 300 299 298 299 299 299 300 299 296 296 296 296 296 298 300 301 301 301 299 295 294 295 295 295 295 295 296 296 295 296 296 296 296 296 296 296 296 296 296 298 301 302 301 301 300 299 299 299 297 295 296 297 299 300 301 301 301 301 301 301 300 301 300 300 300 300 300 300 300 299 299 298 298 298 297 297 296 296
309 307 306 305 304 304 303 302 299 298 299 299 298 299 297 296 295 295 296 297 299 301 301 302 302 299 296 295 295 294 295 296 296 295 295 296 296 296 296 296 296 296 295 295 296 295 296 299 300 300 300 299 298 299 297 295 294 295 297 299 300 301 301 301 301 301 301 300 301 300 300 300 300 300 300 300 299 299 298 298 297 297 296 296 296
309 308 306 306 306 305 304 303 300 299 299 298 297 297 296 296 295 295 297 298 299 302 303 303 303 300 298 295 294 294 295 295 296 296 295 296 296 296 296 296 296 296 296 295 296 296 296 297 298 300 299 298 298 297 296 294 294 294 296 298 300 301 301 301 301 302 301 300 300 300 300 300 300 300 300 299 299 298 298 297 297 296 296 296 296
309 308 307 307 307 306 305 304 301 299 298 297 296 296 295 295 296 298 299 298 301 303 304 304 303 302 299 296 295 295 294 294 295 296 296 296 296 296 296 296 296 296 296 296 295 296 296 296 297 298 297 296 297 296 295 294 294 294 295 297 299 300 301 301 301 301 301 300 300 300 299 299 299 299 300 299 299 299 298 297 297 296 296 296 296
308 306 307 308 308 306 306 304 301 298 298 296 295 295 295 295 296 300 301 302 303 304 304 303 303 303 302 301 300 298 295 294 295 296 296 296 297 298 298 298 299 298 297 296 295 296 296 296 296 296 296 296 296 296 296 296 295 295 295 297 299 300 300 300 301 301 300 300 301 300 299 299 299 299 300 299 299 299 298 297 297 296 296 296 296
306 305 306 308 308 307 305 303 300 297 297 297 296 296 295 295 297 300 302 303 302 302 301 302 301 299 300 302 302 299 296 295 295 295 296 296 296 298 299 300 301 301 299 297 296 296 296 296 296 296 296 296 296 296 296 296 296 295 296 297 299 300 300 300 301 301 301 301 300 299 299 299 299 299 299 299 299 299 298 297 297 296 296 296 297
304 305 308 308 307 305 303 300 298 297 297 296 296 296 295 295 296 299 301 302 301 300 298 299 298 297 297 300 300 298 295 294 296 296 296 296 297 298 300 301 301 301 300 297 296 296 296 296 296 296 296 297 297 297 297 297 297 296 296 298 299 299 299 300 301 301 301 301 300 299 299 299 299 299 299 299 299 298 298 297 297 296 296 297 298
305 307 308 306 304 302 299 297 297 297 296 296 296 296 295 295 296 298 301 302 302 301 298 297 299 298 297 299 300 299 296 295 295 296 296 296 296 297 299 301 302 301 299 297 296 296 296 296 296 297 298 298 298 298 298 298 297 297 297 299 299 299 299 300 300 301 301 301 300 299 299 299 299 299 298 298 298 298 298 298 297 296 296 297 298
306 305 304 302 301 300 297 296 296 297 296 296 296 295 295 295 295 298 303 304 304 303 299 297 301 300 295 296 299 299 298 296 295 296 296 296 296 296 298 300 301 299 297 296 296 296 296 296 298 299 300 300 299 300 299 298 298 298 298 299 300 299 299 300 300 300 300 300 300 298 299 299 299 299 298 298 298 298 298 298 297 296 296 296 298
304 301 299 298 299 298 297 296 296 297 297 295 295 296 295 295 295 298 303 305 304 304 301 299 301 300 295 293 296 296 296 296 295 296 296 296 296 296 297 298 298 297 296 296 296 296 296 298 300 301 301 300 300 300 299 299 299 298 298 299 300 299 299 299 300 300 300 300 300 299 299 299 298 298 298 298 298 297 297 298 298 297 296 296 297
Wind_Speed
8 8 9 10 10 10 10 9 9 8 7 7 6 6 5 5 4 3 2 2 2 3 3 2 2 2 2 2 3 3 4 4 4 6 8 8 8 7 8 10 10 10 10 11 10 10 10 11 11 12 13 13 14 14 14 13 13 12 12 12 12 13 13 14 15 16 17 16 16 17 17 17 17 17 17 17 17 17 17 16 16 16 17 17 17
8 8 9 10 11 11 10 10 9 8 8 7 6 6 5 4 4 3 2 2 2 2 2 2 2 2 2 2 3 3 3 4 3 5 7 8 8 8 8 10 10 10 10 10 10 10 10 11 12 13 14 14 14 14 14 14 13 13 14 14 13 14 14 15 15 16 17 17 16 16 16 17 17 18 18 20 20 19 18 17 16 16 16 17 18
9 9 9 9 10 10 10 10 9 8 8 7 6 6 5 4 4 4 3 1 1 1 2 2 2 2 2 2 2 3 3 3 3 3 6 7 8 10 11 10 11 10 9 9 9 9 10 11 12 12 13 14 15 15 15 16 16 17 18 18 17 16 16 16 16 17 17 17 16 15 15 15 16 17 19 20 21 21 19 18 17 17 17 17 18
10 10 9 9 9 10 10 10 11 9 8 7 7 6 4 4 4 3 2 1 0 1 2 3 3 2 2 2 2 3 3 3 3 4 6 7 7 10 13 13 13 11 9 9 8 9 10 11 12 12 13 14 15 16 16 17 19 20 20 21 20 19 19 18 17 17 17 16 16 16 15 15 15 16 17 19 20 21 21 19 17 17 17 17 18
10 11 10 9 11 11 11 11 11 10 9 9 7 5 4 3 3 2 1 1 1 2 2 3 3 3 2 2 2 3 3 4 4 4 5 4 5 7 11 13 15 13 11 10 8 9 11 12 13 14 14 15 15 16 17 18 19 21 21 22 23 22 22 21 19 18 17 17 17 17 16 15 16 17 17 18 19 20 21 21 20 18 18 18 18
10 11 10 10 12 12 10 9 9 8 9 9 6 5 4 3 2 2 0 1 1 2 2 2 2 2 1 2 3 3 4 5 6 6 5 5 4 4 5 7 11 13 13 13 12 11 13 15 15 16 16 16 17 17 17 19 20 21 22 23 24 24 23 23 21 19 19 20 19 19 18 17 18 18 19 19 19 20 21 22 22 21 20 19 18
9 10 11 10 9 9 8 7 6 6 6 9 8 5 5 4 3 2 1 1 2 2 2 2 1 1 1 3 3 5 6 5 6 6 6 6 4 2 2 3 5 7 7 11 16 17 16 17 17 17 18 17 17 17 18 19 20 22 22 23 23 24 23 23 23 22 21 21 20 21 21 19 20 21 22 22 21 21 21 22 23 22 22 21 20
10 10 10 8 6 5 5 5 6 7 5 8 8 5 5 4 3 2 1 1 2 2 2 2 1 1 2 4 4 5 6 5 6 5 4 4 3 4 5 5 5 7 7 8 16 20 18 18 17 16 16 16 17 17 17 18 19 20 22 22 22 23 24 24 24 23 23 23 21 23 24 22 23 24 25 25 24 22 22 23 22 21 22 22 22
11 8 7 7 7 6 5 5 6 7 6 7 7 4 4 3 2 1 1 2 3 2 2 2 1 2 3 5 5 5 5 5 5 4 3 2 4 6 8 9 8 10 13 12 13 16 17 16 15 15 15 15 16 17 17 17 18 19 20 21 22 23 24 24 25 25 25 25 23 24 26 24 24 25 25 26 26 23 21 22 22 21 21 22 23
9 5 6 7 5 3 4 5 7 6 4 6 5 4 3 2 1 1 1 1 1 2 1 1 1 3 4 5 4 4 4 4 4 3 1 2 5 8 10 11 10 11 12 12 12 11 12 13 13 14 15 15 16 16 17 17 17 19 19 20 21 22 23 24 25 26 26 26 25 25 26 25 25 25 25 25 26 25 22 22 23 22 21 22 23
6 3 6 6 3 2 4 5 5 4 5 6 4 3 1 2 1 2 1 2 1 0 0 1 1 3 3 2 3 4 4 4 3 3 2 6 7 8 9 10 11 11 10 10 11 11 12 12 12 12 14 16 16 16 17 17 17 18 19 19 20 21 22 23 24 25 26 27 26 26 27 26 25 25 25 25 26 27 25 23 23 23 22 21 23
5 4 5 5 3 3 4 3 2 3 4 5 3 1 1 1 1 1 2 2 2 3 3 4 3 3 1 1 2 3 4 5 3 0 4 7 7 7 7 8 9 10 11 11 12 12 12 12 12 12 13 15 16 17 18 18 18 18 19 19 20 21 21 22 23 23 24 26 26 27 27 27 26 25 25 25 26 27 28 26 24 24 24 22 24
4 4 4 4 4 4 4 3 1 1 2 3 2 1 0 1 1 1 2 2 3 4 6 7 5 4 2 2 2 2 4 4 2 3 5 6 7 7 7 7 8 9 11 12 12 12 12 12 13 13 14 15 16 17 18 19 19 19 20 20 20 21 22 22 23 23 24 25 26 27 27 28 28 27 26 26 27 27 28 28 25 24 26 26 25
5 4 4 4 4 4 4 2 1 0 1 1 1 1 1 1 1 1 4 2 3 3 6 8 5 7 6 4 3 2 4 5 2 3 5 6 6 7 7 8 8 8 9 9 11 13 14 14 15 16 16 16 17 17 18 19 20 20 20 20 20 21 22 23 23 24 25 25 26 27 27 28 29 29 27 26 26 27 28 28 26 24 25 27 28
6 5 5 4 4 4 4 3 1 1 1 1 1 1 1 2 2 5 1 4 1 3 6 8 7 9 8 7 8 7 4 3 1 2 6 7 9 9 8 8 8 8 9 9 10 13 15 16 17 17 17 17 17 18 18 20 21 21 22 22 21 21 22 23 23 24 25 26 26 26 27 28 29 29 29 27 26 27 28 28 27 26 25 26 28
7 7 6 5 5 4 3 3 3 2 2 2 1 1 0 1 2 7 6 2 5 3 5 7 9 10 9 7 9 9 7 4 1 4 6 7 10 10 8 8 9 10 12 12 13 13 15 16 17 17 18 18 19 20 20 21 23 23 23 24 24 24 24 24 25 25 25 26 27 27 27 28 29 30 29 28 26 26 28 29 29 29 27 26 26
7 8 7 6 5 5 4 4 4 3 2 2 0 1 0 2 2 5 7 3 5 4 5 6 7 10 9 6 6 5 5 4 1 3 3 5 9 10 9 10 11 12 13 14 14 14 15 17 18 19 20 22 22 22 22 21 23 24 25 27 28 28 27 26 26 26 26 27 27 28 28 28 30 30 30 29 28 28 28 28 29 30 30 29 28
8 7 7 5 4 5 5 4 4 4 2 1 0 1 3 4 5 5 6 6 4 2 2 3 4 7 8 7 5 3 6 4 2 1 0 3 7 9 9 11 12 13 12 12 13 16 17 17 19 19 19 22 23 23 22 21 23 25 26 29 31 30 29 28 27 27 26 27 27 28 28 29 29 30 31 29 29 29 29 29 28 29 30 30 30
8 8 6 5 4 6 5 4 4 3 2 1 2 4 5 6 6 6 6 7 7 4 3 2 2 3 4 5 4 3 7 6 2 2 1 2 3 8 8 9 12 12 9 10 13 17 19 18 18 17 14 18 21 21 22 22 23 24 26 29 30 29 29 27 27 26 26 26 26 27 28 29 29 29 30 30 30 30 30 31 30 28 28 29 30
8 7 5 5 6 6 5 5 2 1 1 3 5 6 6 6 6 7 6 6 6 7 7 6 5 5 5 4 4 4 5 6 6 2 1 3 2 6 8 10 12 13 12 12 12 15 17 16 15 15 12 14 18 19 20 23 24 22 24 29 30 27 26 25 25 25 25 25 25 26 26 27 29 29 29 30 31 31 31 31 30 29 27 28 29
8 6 6 7 7 5 6 5 3 2 3 5 6 7 7 7 6 6 6 5 5 6 8 8 8 9 9 8 7 7 6 5 7 3 3 1 1 2 5 10 10 11 15 13 7 8 10 11 12 13 12 13 16 18 20 23 22 20 25 31 31 28 26 25 25 25 25 26 26 25 25 25 26 27 27 28 30 31 31 31 30 29 27 27 28
8 8 8 8 6 6 6 5 4 4 6 7 8 8 7 6 6 6 6 6 7 7 8 9 9 9 10 10 10 8 7 5 6 5 5 3 3 2 2 5 4 7 14 12 5 6 8 10 11 12 13 13 16 18 21 22 19 20 29 35 33 30 29 29 29 29 29 30 29 27 25 24 24 24 25 27 29 31 32 31 30 29 28 27 28
9 9 8 7 7 7 5 5 6 7 8 8 9 8 7 6 6 7 7 9 10 10 11 11 10 10 10 10 10 9 8 7 8 6 5 4 3 3 2 4 1 3 9 9 5 6 9 10 10 12 13 15 17 19 21 21 19 23 32 36 33 32 32 33 33 32 34 35 32 27 24 24 23 23 24 25 27 30 31 30 29 29 29 29 28
9 8 7 7 7 6 5 7 8 9 10 10 9 8 7 7 8 9 10 11 12 12 12 12 12 12 11 10 10 9 10 9 9 8 6 5 3 4 4 4 4 2 3 5 6 7 10 11 11 12 15 17 19 21 23 23 22 27 35 36 34 32 33 34 32 33 36 35 32 28 27 26 26 26 26 26 27 28 29 29 29 30 30 29 28
8 8 7 7 5 4 7 10 11 11 11 10 9 8 8 9 10 11 12 12 13 12 12 13 13 12 11 11 11 11 11 10 10 9 8 6 5 4 4 4 5 4 3 4 6 8 11 11 11 13 16 18 21 24 27 27 25 29 36 37 33 31 32 31 31 34 35 35 34 34 33 32 33 33 32 32 31 30 29 28 28 29 29 29 29
8 7 6 5 5 6 9 12 12 12 12 10 9 9 10 11 12 13 14 13 13 13 12 12 11 11 11 12 12 12 11 11 10 10 9 9 8 6 6 4 4 5 4 5 7 10 13 12 10 14 17 19 23 26 28 28 25 30 37 35 31 30 29 29 31 33 34 35 38 38 39 39 39 40 40 40 38 33 29 27 28 28 28 28 28
8 5 4 6 7 9 12 14 13 13 11 10 10 11 12 13 13 14 14 14 14 14 13 12 11 12 13 13 12 12 11 11 10 11 12 12 11 10 8 5 5 5 5 5 8 10 14 13 11 14 18 20 24 27 28 26 25 32 36 33 30 29 28 30 31 33 34 36 38 39 40 41 42 42 44 43 38 31 28 27 27 27 26 25 26
7 4 4 6 8 11 14 14 13 12 11 11 12 13 14 14 15 15 15 15 15 14 13 12 12 13 13 13 12 12 11 11 12 13 14 15 14 14 12 9 7 7 5 6 8 10 13 14 12 15 18 20 24 26 27 24 25 33 35 31 29 28 29 30 30 33 36 37 38 39 40 42 44 45 45 42 35 28 26 26 26 26 25 25 25
7 4 4 7 10 13 14 14 13 12 12 13 14 15 15 15 16 15 15 15 14 14 13 13 13 13 13 13 13 12 12 12 12 14 15 16 16 15 14 12 9 7 7 7 8 11 14 15 14 17 19 21 23 25 26 23 26 33 34 30 28 29 31 30 30 33 36 36 37 39 41 43 44 44 43 39 34 29 27 25 25 26 26 26 27
6 4 5 9 13 14 15 14 13 13 13 15 16 16 16 16 16 16 15 15 14 14 14 14 14 13 13 14 13 13 14 14 13 14 16 15 13 12 12 13 13 10 8 8 8 11 15 16 15 17 20 21 22 23 24 24 27 32 33 30 28 30 32 28 28 33 34 35 38 39 42 43 42 42 41 37 34 31 27 26 27 27 27 27 27
4 3 7 13 16 16 15 13 13 14 15 16 17 17 17 17 17 16 16 15 14 14 14 14 14 13 13 14 14 14 14 14 14 15 15 14 11 9 9 12 14 14 10 7 7 10 14 16 16 16 19 21 21 21 23 24 27 31 32 30 28 31 31 25 25 31 34 36 38 39 41 42 42 42 40 36 34 32 30 29 29 30 28 27 27
4 5 11 15 16 16 15 13 14 15 17 18 18 18 17 17 17 17 16 15 14 15 15 15 15 14 13 14 13 14 13 11 11 12 11 11 10 8 8 9 13 15 12 8 8 10 12 14 16 16 18 21 21 20 23 26 29 31 31 29 29 31 29 25 26 29 32 34 35 38 42 42 41 39 37 37 36 34 33 31 31 31 28 27 26
5 9 14 16 16 16 15 14 15 16 18 18 18 18 18 18 18 17 16 16 15 15 15 15 15 15 13 13 12 13 13 10 7 7 6 7 8 8 8 8 10 13 13 10 9 11 13 14 15 16 17 20 20 20 23 27 31 34 31 29 31 30 27 27 28 26 29 33 36 39 41 40 38 37 37 39 38 37 37 35 33 30 27 26 26
7 11 15 16 16 16 15 15 15 17 18 18 19 18 18 18 18 18 17 16 15 15 15 14 15 15 13 13 12 13 14 11 7 6 6 6 6 6 8 8 9 11 12 12 10 11 14 15 16 16 17 18 20 20 22 26 32 36 32 29 32 31 26 27 29 28 30 35 37 39 39 38 36 37 39 40 39 39 39 35 31 28 27 29 29
8 12 16 16 16 16 15 16 17 18 19 19 19 18 18 18 18 18 17 16 16 15 14 13 13 14 13 13 13 13 12 10 8 8 9 8 6 6 6 7 8 10 11 11 10 11 14 15 16 16 17 18 19 20 21 24 30 35 33 31 32 30 27 27 28 29 31 35 37 38 39 37 35 36 39 40 39 38 37 35 32 30 30 31 30
10 14 16 16 17 16 16 17 18 19 20 19 19 19 18 18 17 17 17 16 15 13 12 12 12 12 12 11 11 11 10 8 7 7 8 8 7 7 7 6 7 9 10 10 9 11 13 15 15 15 17 18 19 21 22 24 28 33 34 35 33 28 27 27 28 28 31 35 37 39 40 38 37 38 39 38 36 36 35 35 34 32 30 28 27
11 16 17 17 17 17 17 19 19 20 20 19 20 20 19 19 18 17 16 15 14 13 13 13 12 11 11 10 10 10 9 8 7 7 8 8 6 7 9 7 6 9 10 9 9 10 12 13 14 16 16 17 19 21 22 25 28 29 32 38 36 29 27 28 28 28 29 34 38 41 42 39 38 40 39 35 34 34 34 33 32 29 27 26 25
12 17 19 18 18 17 18 18 18 19 20 20 20 20 20 20 19 18 17 15 14 14 14 13 12 11 10 10 11 11 10 9 9 9 9 10 8 7 9 9 9 11 10 9 10 10 12 12 13 15 16 17 19 21 22 26 29 29 30 35 35 30 28 29 29 28 28 32 38 43 42 40 39 39 38 35 33 32 32 32 31 28 26 26 26
14 19 19 18 18 18 18 18 18 19 20 20 20 20 19 19 19 18 17 16 15 15 14 13 12 10 10 10 11 10 10 9 9 9 9 10 10 9 10 11 12 12 10 9 10 11 11 11 13 15 16 17 20 22 23 26 29 30 30 32 33 31 30 30 29 28 29 32 37 41 41 40 40 39 37 35 32 31 31 32 30 27 27 30 31
17 20 19 20 19 19 19 19 18 20 20 20 19 19 19 19 19 18 17 17 16 15 14 13 11 10 10 11 10 9 9 9 9 9 8 9 10 9 10 11 12 13 11 9 10 11 11 11 13 15 16 18 20 22 24 27 31 33 31 30 30 30 31 30 28 28 30 33 36 38 39 39 38 37 37 33 31 32 32 30 28 29 32 35 35
19 20 20 21 20 19 20 20 20 21 21 20 19 19 19 19 19 18 17 17 16 15 13 12 11 10 10 10 9 9 9 8 8 9 8 8 8 9 9 11 12 13 13 11 11 12 12 11 13 15 16 18 21 23 24 28 31 33 33 30 28 29 30 29 28 27 29 33 36 36 38 40 39 38 36 33 32 34 31 28 30 34 36 37 37
20 21 21 21 20 20 20 20 22 22 22 22 21 20 19 19 20 19 18 17 16 14 12 12 10 9 10 9 9 8 8 8 8 8 8 7 8 9 9 10 12 13 14 14 14 15 14 11 12 15 17 19 21 22 23 28 31 33 33 30 28 29 30 30 30 28 29 34 36 36 37 38 39 39 36 33 33 33 30 28 32 35 36 37 38
21 22 22 21 21 21 20 21 22 22 23 24 24 23 21 20 20 20 19 17 15 14 12 11 10 9 9 8 8 7 7 7 7 7 6 6 7 8 8 10 11 12 14 15 16 17 16 13 13 14 16 19 21 20 23 28 32 33 32 30 28 29 30 31 32 30 31 34 35 37 38 38 39 40 36 32 33 33 30 30 32 34 37 39 39
22 22 22 21 21 21 20 20 22 22 23 24 23 22 21 21 22 21 19 17 15 13 11 10 9 9 8 8 7 5 5 5 6 6 5 5 6 6 8 10 11 12 14 15 16 17 18 16 14 13 15 18 19 20 23 28 32 33 32 29 28 28 29 31 31 31 33 33 33 38 39 37 39 40 36 32 33 34 31 30 33 37 39 40 38
23 23 22 21 21 21 20 20 20 21 23 23 22 21 20 21 22 20 17 16 14 11 11 11 10 9 8 6 5 4 4 3 3 4 3 4 5 6 8 10 11 13 14 15 15 16 18 18 15 14 15 17 18 20 24 29 31 33 32 30 29 28 29 30 30 31 32 30 32 38 37 35 39 40 36 33 33 34 33 31 34 38 40 39 37
24 24 23 21 21 21 20 21 23 23 22 22 22 21 20 21 22 20 16 14 13 12 12 12 12 12 9 6 5 5 5 5 4 3 2 3 5 6 7 8 9 12 14 15 16 16 17 17 15 15 16 18 20 23 26 29 30 32 32 30 29 28 29 30 27 28 29 27 29 35 35 34 39 40 38 34 32 35 36 33 34 37 39 40 36
25 24 23 22 21 22 23 24 25 24 22 22 23 22 22 22 22 21 17 15 14 14 15 14 14 15 14 11 9 7 7 6 4 3 2 1 4 4 4 5 6 7 10 12 13 13 14 15 14 15 17 20 22 24 27 29 29 31 31 28 27 27 28 28 25 26 27 25 28 35 34 32 36 39 38 33 33 38 40 36 36 38 40 40 34
24 23 22 23 24 26 27 27 25 24 23 23 23 23 24 24 23 21 18 15 13 14 15 15 13 13 13 11 9 8 8 7 5 3 2 1 3 4 3 4 4 4 7 9 10 10 12 12 12 15 18 21 24 24 26 28 28 30 30 26 25 27 27 26 25 27 27 24 28 36 33 30 34 38 37 35 37 40 40 40 40 40 41 40 34
25 24 25 26 27 28 28 27 25 24 24 24 23 23 24 25 25 21 16 13 11 11 14 15 12 12 14 12 9 8 8 7 5 3 3 1 2 3 3 3 3 4 7 9 10 11 11 11 13 18 20 22 23 23 24 26 28 29 28 25 25 27 27 26 26 28 27 23 28 36 34 30 32 35 37 40 44 46 47 48 47 45 44 44 39
25 27 29 28 25 25 26 26 24 24 24 24 24 24 24 25 25 21 14 10 11 11 13 14 10 11 15 13 11 10 9 8 6 4 3 2 1 2 2 2 3 4 7 8 9 9 11 14 17 20 19 20 21 20 21 24 25 26 25 24 25 26 26 26 26 27 26 23 27 36 36 31 32 33 35 38 42 48 52 50 49 49 48 48 44
24 27 28 26 24 24 26 26 25 23 23 24 24 24 25 25 25 22 16 10 11 11 12 13 11 11 12 12 11 10 9 7 6 4 3 2 1 1 1 1 3 5 7 8 9 10 13 16 17 17 16 17 18 18 19 21 22 23 24 24 24 24 24 25 26 27 26 24 28 36 35 32 33 33 34 37 42 50 54 49 49 54 52 49 47
Wind_Direction
186 178 178 183 184 183 183 185 181 185 185 180 187 189 192 201 205 200 210 248 251 265 280 282 295 319 349 347 339 343 340 348 354 326 322 324 325 335 342 344 347 351 352 348 348 349 348 351 352 351 351 350 351 351 349 347 344 340 335 329 324 322 319 315 313 311 311 312 311 309 307 304 299 296 296 298 300 299 298 296 293 286 278 271 265
190 188 194 193 191 188 184 184 181 184 184 181 185 188 196 200 195 184 192 233 234 267 298 305 309 322 348 357 356 357 351 358 5 340 337 338 335 335 340 343 343 348 347 343 343 341 340 342 344 342 339 338 339 338 338 337 335 330 325 322 320 317 313 311 311 310 311 312 311 310 308 307 302 297 295 297 299 299 296 294 293 290 282 274 267
194 198 205 202 199 194 190 189 185 187 182 180 190 187 189 192 183 176 173 177 219 299 323 322 319 329 347 2 8 14 21 19 19 2 353 356 349 334 335 345 344 342 341 340 337 336 337 337 339 337 330 328 327 325 324 322 319 317 316 316 315 311 307 307 306 305 307 309 311 310 307 304 303 300 296 292 294 297 297 294 292 290 286 278 269
202 201 208 208 207 201 199 196 187 186 179 176 189 184 173 182 180 165 142 115 40 327 330 327 330 335 352 14 24 37 52 45 40 37 25 20 8 342 335 341 343 342 344 345 341 337 336 335 334 330 326 323 321 319 316 315 314 313 314 313 311 308 305 304 301 300 301 304 307 308 305 299 295 295 295 292 289 291 293 294 292 289 287 283 274
213 210 212 214 215 205 200 203 192 182 181 180 178 168 159 169 155 119 96 83 351 336 341 332 340 349 0 36 48 67 73 66 56 55 58 40 28 13 354 345 341 339 343 343 338 336 334 331 328 323 321 317 313 312 310 309 308 308 310 308 307 306 305 305 304 301 298 298 299 300 300 297 292 288 289 290 289 287 286 287 289 290 287 285 281
220 225 222 221 228 218 203 207 203 190 184 172 153 149 151 138 122 118 144 55 358 334 347 337 354 357 3 59 72 81 71 66 53 39 43 29 27 56 33 4 343 335 344 344 329 328 330 325 322 318 315 312 308 305 303 303 302 302 303 302 302 304 304 304 304 302 299 297 297 295 295 297 296 292 288 287 287 287 285 283 283 286 286 282 282
223 237 236 231 243 235 212 212 213 206 186 158 140 142 148 136 137 143 129 61 358 338 0 339 339 346 71 81 83 84 69 64 61 46 46 36 22 45 1 342 333 324 345 338 320 322 327 322 319 315 311 309 306 304 303 301 301 300 299 299 299 300 302 302 302 302 299 296 295 292 291 294 295 294 292 290 288 287 286 283 279 281 284 283 282
228 240 244 244 275 274 225 219 215 208 184 143 128 136 153 149 153 151 125 71 15 350 7 343 333 62 91 84 76 78 72 60 56 50 64 60 8 344 316 312 318 305 307 312 312 319 324 322 319 316 314 314 313 312 311 308 306 303 302 301 300 299 300 301 301 302 300 297 296 292 291 292 293 294 295 295 294 291 288 286 281 277 277 280 281
230 240 250 250 277 283 231 215 221 212 169 128 120 134 151 148 161 209 193 78 32 357 9 0 5 94 95 88 83 79 80 72 58 45 49 49 343 326 315 311 311 307 312 317 316 318 323 326 327 327 328 328 326 324 323 320 316 311 310 308 306 304 302 302 301 301 300 300 301 298 297 298 296 297 297 297 297 295 289 285 283 275 270 272 276
231 249 263 252 260 254 201 199 220 211 131 111 120 127 144 163 130 348 254 209 50 30 31 21 49 105 102 95 100 84 73 76 71 63 5 325 325 320 316 317 316 315 319 326 327 327 332 337 341 339 337 337 334 332 331 329 325 321 320 318 314 311 308 307 304 303 302 301 301 300 299 301 300 300 300 298 297 295 288 282 280 275 268 266 270
235 264 264 250 244 212 186 196 212 186 120 104 110 115 172 193 100 43 4 316 304 131 84 97 127 135 107 92 119 104 103 134 113 75 311 308 322 322 323 327 328 330 334 341 344 347 350 350 352 349 342 341 341 339 337 336 333 328 327 324 320 318 314 312 309 307 305 303 302 300 299 300 299 298 298 297 296 296 292 283 277 276 272 264 264
236 245 250 230 204 188 181 194 196 147 120 114 128 161 231 73 338 220 96 36 286 233 169 146 180 212 267 279 183 147 175 191 173 109 313 318 326 328 336 339 337 343 350 357 359 357 359 358 357 355 350 348 347 346 343 340 339 334 332 329 325 322 319 316 313 311 308 306 305 303 301 300 299 297 295 294 294 294 294 291 282 277 277 271 266
230 218 225 207 179 164 171 193 157 119 139 144 177 232 342 41 346 305 69 101 236 234 181 164 190 203 167 231 228 209 232 246 283 295 311 328 341 346 349 352 353 358 359 2 4 6 8 6 4 2 360 358 354 351 348 345 344 340 336 333 329 326 323 321 318 316 313 311 309 306 305 303 301 299 296 293 292 292 293 294 289 279 277 276 274
211 191 193 184 162 150 163 183 93 236 217 156 216 263 292 344 54 28 348 315 189 202 185 160 181 211 188 177 162 159 243 265 302 329 341 351 2 4 4 9 11 14 15 10 6 11 15 11 10 8 4 3 359 356 354 350 348 344 341 340 336 331 327 325 323 322 319 316 313 310 308 307 304 302 300 296 293 292 291 292 291 284 277 276 277
201 182 176 178 165 150 163 186 179 225 272 5 335 286 250 347 103 143 31 323 210 161 179 164 174 204 204 201 183 164 199 256 295 356 7 11 13 14 18 20 21 24 29 28 18 16 17 15 12 10 8 7 4 2 0 356 353 351 348 346 344 338 334 331 328 326 323 320 317 314 312 310 307 304 304 303 298 292 289 288 288 284 279 276 277
198 183 177 183 175 166 181 212 218 231 279 313 325 345 333 53 126 146 135 295 267 195 175 188 193 192 197 218 213 196 182 181 292 356 11 16 16 16 20 25 29 32 32 33 28 21 19 19 17 15 14 14 12 10 7 360 357 356 351 349 347 345 342 338 334 330 326 323 320 318 315 312 311 309 308 308 304 298 291 287 285 283 280 277 277
197 186 185 182 176 190 215 235 247 257 286 310 342 19 227 165 159 155 146 184 239 210 175 197 204 197 203 215 219 206 169 177 244 34 22 355 2 6 19 32 34 37 36 33 31 26 24 22 20 20 20 18 17 13 9 0 355 355 354 352 350 347 344 340 337 333 329 326 322 320 318 314 313 313 313 311 308 304 298 292 288 284 282 279 277
194 192 191 182 187 207 221 244 263 266 274 317 110 161 189 181 171 173 168 168 182 187 172 191 203 206 214 211 206 158 131 166 242 99 131 333 352 352 17 36 35 40 39 31 30 30 31 25 19 19 16 14 15 11 6 358 352 354 355 353 350 346 343 341 337 333 328 324 321 319 317 315 314 313 314 315 311 308 305 302 297 290 285 281 278
190 198 193 191 213 209 223 263 278 282 280 185 174 182 183 181 177 176 179 174 167 161 150 157 181 191 201 197 195 168 157 172 163 99 171 180 327 335 1 27 34 41 36 31 28 25 30 27 18 16 6 1 5 3 360 356 353 355 355 352 349 345 343 340 336 332 327 323 320 318 316 314 313 312 313 313 312 311 309 308 306 301 294 287 282
189 195 196 214 222 214 244 277 277 267 226 176 179 189 181 175 179 177 176 179 175 171 162 149 142 134 132 147 141 140 168 182 178 183 300 182 237 329 334 342 10 26 24 32 27 14 16 13 10 10 357 350 353 353 354 354 352 353 351 350 350 346 343 340 335 332 328 324 321 317 315 312 310 310 310 309 309 310 310 310 309 307 301 294 287
187 189 214 225 217 227 263 267 247 205 189 182 180 183 178 174 176 170 165 166 161 160 157 148 142 135 129 129 125 121 131 157 174 169 20 50 87 359 310 321 344 357 6 22 16 349 354 352 354 358 352 346 345 346 350 351 350 346 346 350 352 348 344 340 337 334 332 330 326 321 317 313 310 310 310 308 307 307 307 308 309 309 305 299 293
189 200 218 217 217 245 259 240 217 191 181 182 181 179 175 169 163 153 148 145 139 139 141 140 139 140 137 133 126 116 108 107 116 93 47 45 35 29 294 318 313 310 346 12 15 341 350 349 346 349 351 346 342 343 346 348 344 339 346 351 351 348 347 344 340 337 336 335 330 325 321 317 314 313 311 308 306 305 304 305 307 308 306 301 297
195 209 211 211 230 244 233 201 183 175 178 181 179 176 167 158 146 139 140 138 137 136 135 132 128 131 130 128 125 118 113 106 97 77 43 34 14 8 350 338 303 280 339 10 30 2 354 351 349 352 352 348 344 344 345 346 342 343 349 350 348 349 348 344 340 337 335 335 333 330 328 327 323 319 315 309 304 302 300 302 302 302 302 302 299
199 204 206 224 237 224 186 173 171 173 181 182 178 169 154 148 142 139 141 139 137 137 134 131 125 124 120 115 117 115 114 109 101 95 70 44 11 11 18 355 2 5 351 15 21 8 0 355 356 358 353 350 350 351 354 355 351 350 351 350 350 349 344 340 337 332 330 331 335 335 333 333 331 328 324 319 312 303 299 300 299 297 298 300 299
200 204 214 224 218 181 165 170 175 180 183 179 169 159 147 145 143 142 140 134 132 131 129 126 122 121 119 117 116 108 106 104 98 100 93 73 53 31 15 6 12 9 23 41 20 9 6 1 359 357 353 355 357 0 4 3 357 351 350 351 350 345 340 335 329 328 330 334 339 339 336 335 333 331 328 325 321 312 302 297 296 297 298 297 297
196 216 217 190 161 158 166 174 181 183 180 171 160 153 149 146 144 141 137 132 131 128 123 123 124 124 121 116 112 106 101 101 99 99 96 86 75 51 13 0 15 18 28 32 20 12 6 5 3 357 356 357 1 6 7 3 354 348 350 350 346 342 336 327 325 334 340 340 341 339 337 335 333 331 328 325 323 319 310 302 296 296 299 298 297
189 204 188 162 158 164 168 175 183 181 171 162 156 152 148 145 143 139 135 132 129 126 124 126 127 123 118 111 106 105 102 101 103 100 95 87 78 69 48 25 15 20 28 19 20 14 4 5 2 358 358 355 2 8 5 359 348 346 351 348 341 339 331 327 337 345 344 341 339 336 334 333 331 328 326 325 324 321 316 310 300 295 298 303 303
188 180 182 182 173 169 172 179 181 174 163 159 157 152 148 145 141 139 137 134 131 129 130 129 124 117 113 110 106 105 106 107 105 100 94 86 80 76 64 51 31 11 13 18 17 8 4 6 359 359 0 355 1 7 1 355 344 346 352 345 338 337 331 339 352 346 339 340 337 333 331 328 327 325 325 324 323 320 318 315 308 300 299 303 304
197 214 232 204 181 175 178 180 175 168 162 160 157 152 148 145 143 142 139 137 137 135 131 124 120 116 113 113 112 110 108 104 101 98 93 84 76 70 61 55 49 25 7 11 11 2 3 6 359 359 359 355 0 2 355 348 342 347 350 343 339 337 337 351 354 341 338 338 333 330 328 327 327 327 327 324 320 319 319 316 314 308 301 299 299
208 253 240 196 183 181 180 178 172 167 164 161 156 152 149 147 144 142 139 140 140 135 128 124 120 118 117 115 112 110 105 98 94 91 88 81 66 57 52 48 54 53 24 5 3 359 2 5 1 357 354 353 356 354 349 344 343 348 349 344 341 338 342 354 348 338 338 335 331 329 328 330 331 330 329 325 322 323 321 317 316 313 306 300 296
223 241 202 189 185 183 180 177 172 168 166 160 154 151 150 148 145 143 142 141 138 131 127 126 124 123 121 116 110 104 97 91 87 81 77 76 66 50 44 38 47 58 45 9 354 355 357 357 355 350 348 350 352 348 345 344 345 349 349 346 342 340 344 350 345 340 338 332 330 330 332 334 333 331 330 327 326 326 323 320 319 317 313 307 301
209 186 185 187 186 181 177 176 173 169 164 158 153 152 151 149 146 144 142 137 133 133 133 131 128 124 118 115 113 106 96 82 73 68 60 59 57 50 45 34 37 49 48 21 353 350 351 347 344 343 344 347 349 347 345 346 349 352 351 347 344 343 342 343 345 344 334 329 333 335 336 335 334 335 336 334 332 329 325 323 321 320 318 314 311
167 171 182 186 184 180 176 175 174 169 163 158 155 155 153 151 147 144 140 136 137 138 137 134 128 124 118 114 113 109 105 93 68 61 52 44 41 40 45 39 30 38 44 33 5 347 347 346 342 341 342 344 347 348 346 346 354 358 354 347 346 346 342 340 343 340 331 333 340 340 336 335 335 338 338 338 336 333 329 324 321 321 321 320 317
157 173 185 185 181 179 175 174 173 168 163 160 158 158 156 153 149 145 141 141 145 143 138 135 130 126 123 119 114 109 106 102 88 85 82 62 48 44 45 38 29 33 39 35 15 347 341 343 343 342 342 343 345 347 346 345 355 1 354 346 349 349 343 340 341 339 336 340 342 340 338 339 339 339 339 339 337 335 333 329 326 326 323 320 318
162 177 185 183 179 177 176 174 172 167 165 163 161 159 156 154 150 146 146 147 146 140 134 133 130 126 124 121 117 109 101 95 87 89 89 72 54 57 54 30 18 27 34 28 8 344 336 336 340 341 341 343 344 346 345 344 353 360 354 348 352 351 343 340 340 340 340 340 339 339 343 345 343 342 341 339 337 337 337 335 331 327 323 321 320
175 183 185 181 179 179 177 175 172 169 168 165 161 159 156 155 152 148 148 147 143 139 138 136 132 128 126 121 116 109 103 98 85 80 86 77 54 55 65 35 5 22 30 14 351 338 333 331 336 339 340 341 342 344 344 342 348 356 357 357 355 348 343 341 339 339 340 340 340 343 347 348 346 345 342 338 340 341 338 335 332 330 330 329 327
189 187 183 180 182 184 179 176 174 171 169 166 162 161 159 157 154 151 151 149 148 149 149 144 138 135 132 126 120 114 110 112 108 99 97 91 65 52 67 57 24 32 30 2 343 339 332 329 332 337 340 342 341 344 346 344 345 348 355 3 1 349 341 340 339 340 340 339 340 343 346 347 347 346 342 340 342 340 335 334 335 337 337 333 328
194 185 182 182 183 183 179 176 175 173 170 168 166 164 162 160 157 156 156 156 155 153 148 144 142 140 138 135 130 126 124 123 118 112 106 98 82 61 66 63 48 43 28 355 344 342 336 335 336 338 341 343 343 346 347 347 348 345 346 356 359 351 343 340 339 340 338 336 340 344 346 345 345 345 343 342 343 339 337 340 340 339 335 328 323
193 184 183 184 181 179 178 175 175 175 171 169 168 166 165 164 160 160 161 160 157 151 148 149 146 143 147 145 136 130 129 128 119 111 105 97 87 70 62 60 54 48 29 358 352 349 342 342 342 342 344 344 344 346 347 348 352 353 348 347 348 347 345 342 340 339 335 334 340 345 347 345 344 344 345 344 342 341 343 344 341 337 331 324 320
190 184 185 186 180 176 179 177 177 177 173 170 170 168 168 167 164 164 165 164 161 155 153 153 150 150 156 150 138 131 128 125 117 108 99 92 86 74 62 56 53 49 35 11 359 355 350 348 347 346 346 346 345 345 347 348 351 355 353 345 340 341 342 342 341 339 335 335 338 343 347 346 343 344 346 345 344 344 344 343 340 334 329 325 322
186 182 188 188 179 177 181 181 181 180 174 171 171 170 171 170 167 167 169 167 163 158 154 153 153 159 161 149 137 136 133 125 117 106 96 88 81 71 62 53 50 48 42 31 17 7 2 353 348 349 347 346 347 346 346 349 351 353 353 346 339 338 340 339 339 340 339 338 340 343 347 346 344 345 347 347 345 345 344 342 339 333 328 326 325
183 183 188 186 181 181 181 183 185 181 176 177 176 173 173 172 170 171 171 167 160 158 157 155 157 165 162 149 140 141 138 128 117 105 95 87 75 65 58 50 46 43 40 36 30 23 17 2 350 352 349 344 347 347 344 349 355 356 353 346 339 339 340 338 337 340 344 343 342 343 345 347 347 346 348 348 346 345 345 342 337 332 329 327 326
183 185 187 183 183 184 181 185 188 182 181 184 182 177 175 173 174 172 169 165 160 161 162 161 162 166 160 150 147 147 141 128 116 101 86 75 66 58 53 48 44 40 36 33 29 26 23 16 360 351 348 346 347 346 345 353 1 360 354 347 340 339 340 339 337 338 344 346 343 341 343 346 348 347 347 348 348 346 344 339 336 334 331 328 326
184 185 184 181 182 183 182 187 188 185 188 190 185 181 179 176 174 170 168 167 163 162 164 164 168 169 163 159 155 148 138 124 112 104 90 73 64 57 52 47 39 35 32 27 25 22 21 22 11 350 346 348 347 347 352 359 3 360 356 350 342 338 337 337 334 335 341 345 342 340 341 344 348 348 347 348 350 348 343 339 339 337 332 328 327
186 185 182 180 183 184 183 186 189 191 193 190 184 183 184 180 173 166 166 167 163 165 171 172 174 170 166 170 166 158 157 147 132 123 107 82 64 41 32 33 28 25 24 20 18 18 18 21 14 356 353 353 349 353 0 4 3 359 357 354 345 337 334 333 332 334 340 345 344 341 342 345 347 348 347 349 351 350 347 343 341 338 334 333 331
190 188 183 180 183 184 184 189 193 193 192 188 185 184 184 184 173 161 161 166 167 175 178 176 178 172 167 171 178 184 186 176 164 147 118 87 71 41 13 8 8 6 7 8 10 12 14 17 12 4 6 4 358 0 4 5 2 360 360 357 346 336 332 333 333 336 342 347 346 344 345 346 346 347 348 351 351 351 352 350 345 342 341 341 339
192 190 185 182 184 185 190 196 195 191 189 189 189 186 183 183 175 165 164 170 175 183 182 180 183 180 174 173 179 192 194 184 178 167 151 96 82 68 19 357 360 349 344 353 2 6 8 12 8 6 11 10 6 4 3 1 359 359 3 360 345 334 334 336 337 341 347 350 348 347 346 345 347 348 348 351 354 356 358 355 351 348 347 349 351
193 189 185 185 190 193 197 200 195 189 191 193 192 188 183 183 181 172 167 170 177 185 186 182 183 184 180 174 179 196 198 188 184 179 173 127 80 77 40 11 12 341 321 334 351 359 3 4 0 4 10 8 6 3 359 357 354 355 358 354 343 338 339 339 340 343 349 350 349 349 346 343 348 349 347 352 359 1 2 2 360 357 354 356 360
192 188 188 192 197 201 202 201 195 192 194 195 194 192 186 186 186 174 163 170 179 186 190 183 180 191 188 176 177 196 203 195 187 181 180 153 98 89 64 20 3 334 316 328 347 355 354 354 358 5 5 360 358 356 352 353 352 351 351 345 341 342 340 340 341 342 345 350 350 349 347 344 347 346 346 354 1 3 5 8 8 4 0 1 2
193 194 198 199 200 201 202 201 198 198 198 196 196 195 190 190 188 172 159 177 187 189 195 185 182 207 204 188 189 198 200 197 189 182 187 180 136 113 87 20 343 319 311 329 347 345 346 356 0 1 355 348 350 349 348 351 350 349 350 346 342 342 339 338 340 338 342 348 348 349 351 349 345 343 345 349 356 2 6 8 9 9 6 5 3
200 203 205 202 200 199 200 201 200 201 202 199 198 199 194 193 190 173 159 182 196 191 196 190 189 213 213 200 205 210 201 195 193 190 198 204 197 185 179 299 307 309 317 334 343 341 351 359 355 349 344 344 345 344 346 349 346 351 359 354 343 341 339 338 338 338 340 344 346 349 352 348 344 346 347 346 348 356 3 7 11 12 11 7 4